Terug naar catalogus

SL-12 DEB

LostHEO
NORAD 41684·DEBRIS·🇷🇺 Russia

Gelanceerd Oct 26, 2007 vanaf Baikonur Cosmodrome

Loading…

Volgende Passages (komende 24 uur)

TLE

VerouderdSource: Space-Track

Epoch: Mar 23, 2021, 05:00 UTC

1 41684U 07052R   21082.20872821  .00015048  00000-0  16253+0 0  9994
2 41684  63.9487 135.6841 5282084  26.9700 352.8279  4.66554616110958

Volg SL-12 DEB in realtime met AllMySat

Download on the App Store